TimeCST,TemperatureF,Dew PointF,Humidity,Sea Level PressureIn,VisibilityMPH,Wind Direction,Wind SpeedMPH,Gust SpeedMPH,PrecipitationIn,Events,Conditions,WindDirDegrees,DateUTC
12:56 AM,8.1,3.9,83,30.41,9.0,Calm,Calm,-,N/A,,Clear,0,2013-01-15 06:56:00
1:56 AM,9.0,5.0,84,30.43,9.0,Calm,Calm,-,N/A,,Clear,0,2013-01-15 07:56:00
2:56 AM,8.1,3.9,83,30.42,9.0,Calm,Calm,-,N/A,,Clear,0,2013-01-15 08:56:00
3:56 AM,10.0,5.0,80,30.41,8.0,ENE,3.5,-,N/A,,Clear,70,2013-01-15 09:56:00
4:56 AM,10.9,7.0,84,30.38,8.0,East,3.5,-,N/A,,Clear,90,2013-01-15 10:56:00
5:56 AM,10.0,5.0,80,30.38,9.0,East,3.5,-,N/A,,Clear,90,2013-01-15 11:56:00
6:56 AM,10.0,5.0,80,30.38,8.0,Calm,Calm,-,N/A,,Clear,0,2013-01-15 12:56:00
7:56 AM,10.0,5.0,80,30.39,7.0,Calm,Calm,-,N/A,,Clear,0,2013-01-15 13:56:00
8:56 AM,12.9,9.0,84,30.40,7.0,East,4.6,-,N/A,,Clear,80,2013-01-15 14:56:00
9:56 AM,19.0,12.9,77,30.39,8.0,East,3.5,-,N/A,,Clear,80,2013-01-15 15:56:00
10:56 AM,26.1,12.9,58,30.35,10.0,SW,6.9,-,N/A,,Clear,220,2013-01-15 16:56:00
11:56 AM,28.9,12.0,49,30.32,10.0,SSW,12.7,-,N/A,,Clear,210,2013-01-15 17:56:00
12:56 PM,30.0,12.0,47,30.29,10.0,WSW,6.9,-,N/A,,Clear,240,2013-01-15 18:56:00
1:56 PM,30.0,12.0,47,30.26,10.0,SW,11.5,-,N/A,,Clear,220,2013-01-15 19:56:00
2:56 PM,30.9,12.0,46,30.25,10.0,SW,6.9,-,N/A,,Clear,230,2013-01-15 20:56:00
3:56 PM,30.9,10.9,43,30.24,10.0,SW,9.2,-,N/A,,Clear,230,2013-01-15 21:56:00
5:56 PM,26.1,12.9,58,30.23,10.0,SSW,8.1,-,N/A,,Clear,200,2013-01-15 23:56:00
6:56 PM,25.0,14.0,63,30.20,10.0,South,8.1,-,N/A,,Clear,190,2013-01-16 00:56:00
7:56 PM,24.1,12.9,62,30.18,10.0,South,9.2,-,N/A,,Clear,190,2013-01-16 01:56:00
8:56 PM,24.1,12.0,60,30.15,10.0,SSW,5.8,-,N/A,,Clear,210,2013-01-16 02:56:00
9:56 PM,21.9,12.0,66,30.12,10.0,SSW,5.8,-,N/A,,Clear,200,2013-01-16 03:56:00
10:56 PM,18.0,10.0,71,30.10,10.0,Calm,Calm,-,N/A,,Clear,0,2013-01-16 04:56:00
11:56 PM,19.0,10.0,68,30.06,10.0,Calm,Calm,-,N/A,,Clear,0,2013-01-16 05:56:00